This demonstration page uses our WeatherBlox Daily Observations layout. Learn more.

Left ArrowRight Arrow

40.92945, -100.16068

Hourly Observations for July 16, 2019

Temp ( °F °C ) Dew Point ( °F °C ) Humidity (%) Winds ( mph kmh ) Pressure ( in mb ) Visibility ( mi km ) Precip ( " mm )
12:15 am 00:15 Clear 76 24.5 72 22.2 87 87 ESE 7 11 29.83 1010 10 16 N/A
12:35 am 00:35 Clear 76 24.3 72 22 87 87 SE 9 15 29.83 1010 10 16 N/A
12:55 am 00:55 Clear 75 23.9 71 21.7 88 88 SE 9 15 29.80 1009 10 16 N/A
1:15 am 01:15 Clear 75 23.7 71 21.4 87 87 SSE 7 11 29.83 1010 10 16 N/A
1:35 am 01:35 Clear 74 23.5 70 21.2 87 87 SSE 6 9 29.83 1010 10 16 N/A
1:55 am 01:55 Partly Cloudy 74 23.2 70 21.1 88 88 S 7 11 29.83 1010 10 16 N/A
2:15 am 02:15 Partly Cloudy 74 23.4 70 21 86 86 SSE 10 17 29.83 1010 10 16 N/A
2:35 am 02:35 Clear 74 23.5 69 20.7 84 84 S 12 19 29.80 1009 10 16 N/A
2:55 am 02:55 Clear 74 23.5 69 20.5 83 83 SSW 9 15 29.80 1009 10 16 N/A
3:15 am 03:15 Clear with Nearby Thunderstorms 73 23 69 20.5 86 86 NW 3 6 29.80 1009 10 16 N/A
3:35 am 03:35 Clear 73 22.6 69 20.8 90 90 NNE 9 15 29.85 1011 10 16 N/A
3:55 am 03:55 Partly Cloudy 73 22.6 69 20.7 89 89 NNE 13 20 29.88 1012 10 16 N/A
4:15 am 04:15 Mostly Cloudy 70 21 66 18.8 87 87 NE 16 26 29.88 1012 10 16 N/A
4:35 am 04:35 Cloudy 69 20.5 65 18.4 88 88 NE 15 24 29.88 1012 10 16 N/A
4:55 am 04:55 Cloudy 69 20.3 65 18.1 87 87 NE 12 19 29.88 1012 10 16 N/A
5:15 am 05:15 Cloudy 68 20.1 64 18 88 88 ENE 15 24 29.88 1012 10 16 N/A
5:35 am 05:35 Partly Cloudy 67 19.7 64 17.8 89 89 E 13 20 29.88 1012 10 16 N/A
5:55 am 05:55 Partly Cloudy 67 19.6 63 17.3 87 87 E 12 19 29.88 1012 10 16 N/A
6:15 am 06:15 Clear 67 19.5 64 17.5 88 88 E 8 13 29.91 1013 10 16 N/A
6:35 am 06:35 Sunny 67 19.3 64 17.5 89 89 ESE 9 15 29.91 1013 10 16 N/A
6:55 am 06:55 Mostly Cloudy 67 19.6 64 17.7 89 89 SE 8 13 29.88 1012 10 16 N/A
7:15 am 07:15 Cloudy 68 19.8 64 18 89 89 SE 9 15 29.88 1012 10 16 N/A
7:35 am 07:35 Cloudy 68 19.8 65 18.3 91 91 ESE 5 7 29.94 1014 10 16 N/A
7:55 am 07:55 Mostly Cloudy 68 20 65 18.2 89 89 E 3 6 29.91 1013 10 16 N/A
8:15 am 08:15 Partly Cloudy 68 20 65 18.4 91 91 ESE 5 7 29.91 1013 10 16 N/A
8:35 am 08:35 Sunny 68 20.2 65 18.3 89 89 N N/A 29.91 1013 10 16 N/A
8:55 am 08:55 Partly Cloudy 71 21.7 64 18 80 80 SE 6 9 29.88 1012 10 16 N/A
9:15 am 09:15 Partly Cloudy 73 22.8 64 17.5 72 72 E 5 7 29.88 1012 10 16 N/A
9:35 am 09:35 Sunny 74 23.2 65 18.3 74 74 SSE 9 15 29.85 1011 10 16 N/A
9:55 am 09:55 Sunny 75 23.8 66 18.7 73 73 SSE 9 15 29.85 1011 10 16 N/A
10:15 am 10:15 Sunny 76 24.5 66 18.9 71 71 S 12 19 29.85 1011 10 16 N/A
10:35 am 10:35 Sunny 77 25.1 67 19.5 71 71 SSE 16 26 29.83 1010 10 16 N/A
10:55 am 10:55 Sunny 79 26.2 68 20.2 70 70 S 14 22 29.85 1011 10 16 N/A
11:15 am 11:15 Sunny 80 26.7 69 20.5 69 69 S 16 26 29.80 1009 10 16 N/A
11:35 am 11:35 Sunny 81 27.3 70 20.9 68 68 S 16 26 29.80 1009 10 16 N/A
11:55 am 11:55 Sunny 82 27.6 70 21.2 68 68 S 13 20 29.83 1010 10 16 N/A
12:15 pm 12:15 Sunny 82 27.7 70 21.2 68 68 SSW 10 17 29.80 1009 10 16 N/A
12:35 pm 12:35 Sunny 82 28 71 21.6 68 68 S 8 13 29.80 1009 10 16 N/A
12:55 pm 12:55 Sunny 83 28.1 71 21.6 68 68 S 8 13 29.80 1009 10 16 N/A
1:15 pm 13:15 Sunny 83 28.4 71 21.9 68 68 SSW 6 9 29.80 1009 10 16 N/A
1:35 pm 13:35 Sunny 84 29 72 22.3 67 67 S 6 9 29.80 1009 10 16 N/A
1:55 pm 13:55 Sunny 85 29.2 72 22.1 66 66 N N/A 29.80 1009 10 16 N/A
2:15 pm 14:15 Sunny 85 29.5 72 22.3 65 65 SSW 5 7 29.80 1009 10 16 N/A
2:35 pm 14:35 Sunny 85 29.7 72 22.1 64 64 SSE 7 11 29.80 1009 10 16 N/A
2:55 pm 14:55 Sunny 86 29.8 72 22.4 65 65 N N/A 29.80 1009 10 16 N/A
3:15 pm 15:15 Sunny 86 30.2 71 21.9 61 61 S 8 13 29.77 1008 10 16 N/A
3:35 pm 15:35 Sunny 87 30.5 72 22.2 61 61 SSW 3 6 29.77 1008 10 16 N/A
3:55 pm 15:55 Sunny 87 30.5 72 22.4 62 62 S 5 7 29.74 1007 10 16 N/A
4:15 pm 16:15 Sunny 87 30.7 73 22.7 62 62 SSE 7 11 29.74 1007 10 16 N/A
4:35 pm 16:35 Sunny 88 31 73 22.7 61 61 SSE 7 11 29.74 1007 10 16 N/A
4:55 pm 16:55 Sunny 88 30.9 72 22.1 59 59 SSE 5 7 29.74 1007 10 16 N/A
5:15 pm 17:15 Sunny 88 30.9 72 22.3 60 60 SE 7 11 29.74 1007 10 16 N/A
5:35 pm 17:35 Sunny 88 31 73 22.5 61 61 SE 7 11 29.71 1006 10 16 N/A
5:55 pm 17:55 Sunny 88 31.1 72 22.3 59 59 SSE 10 17 29.71 1006 10 16 N/A
6:15 pm 18:15 Sunny 88 31 73 22.5 61 61 SE 8 13 29.71 1006 10 16 N/A
6:35 pm 18:35 Sunny 88 31 71 21.4 57 57 SSE 9 15 29.71 1006 10 16 N/A
6:55 pm 18:55 Sunny 87 30.5 73 22.5 62 62 SE 9 15 29.71 1006 10 16 N/A
7:15 pm 19:15 Sunny 87 30.5 73 22.8 63 63 ESE 10 17 29.71 1006 10 16 N/A
7:35 pm 19:35 Sunny 86 30 72 22.3 63 63 ESE 8 13 29.71 1006 10 16 N/A
7:55 pm 19:55 Sunny 85 29.5 73 22.8 67 67 ESE 8 13 29.71 1006 10 16 N/A
8:15 pm 20:15 Sunny 84 29.1 73 22.8 69 69 ESE 9 15 29.74 1007 10 16 N/A
8:35 pm 20:35 Sunny 83 28.5 73 22.8 71 71 ESE 10 17 29.74 1007 10 16 N/A
8:55 pm 20:55 Sunny 82 28 73 23 74 74 ESE 8 13 29.74 1007 10 16 N/A
9:15 pm 21:15 Clear 82 27.5 73 23 77 77 ESE 8 13 29.74 1007 10 16 N/A
9:35 pm 21:35 Clear 81 27 73 22.9 78 78 ESE 8 13 29.74 1007 10 16 N/A
9:55 pm 21:55 Clear 80 26.5 73 23 81 81 E 8 13 29.74 1007 10 16 N/A
10:15 pm 22:15 Clear 79 26.1 74 23.1 84 84 ESE 8 13 29.74 1007 10 16 N/A
10:35 pm 22:35 Clear 79 26 74 23.1 84 84 ESE 9 15 29.74 1007 10 16 N/A
10:55 pm 22:55 Clear 78 25.6 74 23.2 87 87 ESE 9 15 29.80 1009 10 16 N/A
11:15 pm 23:15 Clear 77 25.2 74 23.4 90 90 ESE 7 11 29.80 1009 10 16 N/A
11:35 pm 23:35 Clear 77 25.2 74 23.6 91 91 ESE 8 13 29.80 1009 10 16 N/A
11:55 pm 23:55 Clear 77 25.2 75 23.7 91 91 SE 9 15 29.77 1008 10 16 N/A

Powered by AerisWeather